Date String (YYYY-MM-DD hh:mm:ss) UTC,Instrument flags,Ambient pressure (hPa),Sample flow (lpm),Bypass flow (lpm),Sample temperature (°C),Ambient temperature (°C),ASC tube jacket temperature (°C),LED temperature (°C),Box temperature (°C),Sample RH (%),Span deviation,Mass concentration (μg/m³),Mass concentration (μg/m³),Mass concentration (μg/m³)
DateTimeUTC,F1_M11,P_M11,Q1_M11,Q2_M11,T1_M11,T2_M11,T3_M11,T4_M11,T5_M11,U1_M11,ZSPAN_M11,X2_M11,X0_M11,X1_M11
2022-11-09 19:00:00,,0815.0,5.00,0.00,22.7,21.6,00.0,31.5,24.7,17.7,-001.2,0012.10,0019.50,0010.27
2022-11-09 19:01:00,,0815.0,5.00,0.00,22.8,21.6,00.0,31.5,24.7,17.7,-000.8,0012.06,0019.61,0010.24
2022-11-09 19:02:00,,0815.2,5.00,0.00,22.8,21.7,00.0,31.5,24.7,17.8,-000.9,0012.01,0019.75,0010.23
2022-11-09 19:03:00,,0815.1,5.00,0.00,22.8,21.7,00.0,31.5,24.7,17.9,-000.9,0011.99,0019.76,0010.20
2022-11-09 19:04:00,,0815.0,5.00,0.00,22.8,21.7,00.0,31.5,24.7,17.7,-000.7,0011.87,0018.82,0010.17
2022-11-09 19:05:00,,0814.9,5.00,0.00,22.8,21.7,00.0,31.5,24.8,17.6,-000.3,0011.83,0018.86,0010.13
2022-11-09 19:06:00,,0814.9,5.00,0.00,22.8,21.7,00.0,31.6,24.8,17.5,-000.1,0011.73,0018.58,0010.10
2022-11-09 19:07:00,,0814.9,5.01,0.00,22.8,21.7,00.0,31.6,24.8,17.4,-000.2,0011.58,0018.03,0010.05
2022-11-09 19:08:00,,0814.9,5.00,0.00,22.9,21.7,00.0,31.6,24.8,17.4,-000.2,0011.52,0018.10,0010.00
2022-11-09 19:09:00,,0814.9,4.99,0.00,22.9,21.8,00.0,31.6,24.8,17.4,-000.0,0011.42,0018.00,0009.95
2022-11-09 19:10:00,,0814.9,4.98,0.00,22.9,21.8,00.0,31.6,24.9,17.5,0000.3,0011.40,0017.91,0009.91
2022-11-09 19:11:00,,0815.1,5.00,0.00,22.9,21.8,00.0,31.6,24.9,17.4,0000.0,0011.43,0018.00,0009.90
2022-11-09 19:12:00,,0815.0,5.01,0.00,22.9,21.8,00.0,31.6,24.9,17.4,-000.6,0011.42,0018.22,0009.89
2022-11-09 19:13:00,,0814.8,5.00,0.00,22.9,21.8,00.0,31.7,24.9,17.4,-000.7,0011.38,0017.83,0009.87
2022-11-09 19:14:00,,0814.9,5.00,0.00,22.9,21.8,00.0,31.7,24.9,17.3,-000.8,0011.36,0018.02,0009.86
2022-11-09 19:15:00,,0814.8,4.98,0.00,23.0,21.9,00.0,31.7,24.9,17.4,-001.0,0011.34,0018.20,0009.84
2022-11-09 19:16:00,,0814.9,5.00,0.00,23.0,21.9,00.0,31.7,24.9,17.4,-001.2,0011.28,0017.87,0009.84
2022-11-09 19:17:00,,0814.8,5.00,0.00,23.0,21.9,00.0,31.7,24.9,17.3,-001.5,0011.24,0018.44,0009.82
2022-11-09 19:18:00,,0815.0,5.00,0.00,23.0,21.9,00.0,31.7,25.0,17.3,-001.4,0011.20,0019.09,0009.80
2022-11-09 19:19:00,,0815.0,5.00,0.00,23.0,21.9,00.0,31.7,25.0,17.2,-001.4,0011.15,0018.83,0009.80
2022-11-09 19:20:00,,0814.8,5.01,0.00,23.0,21.9,00.0,31.8,25.0,17.1,-001.4,0011.12,0018.58,0009.80
2022-11-09 19:21:00,,0814.9,5.00,0.00,23.0,22.0,00.0,31.8,25.0,17.3,-001.7,0011.09,0018.94,0009.77
2022-11-09 19:22:00,,0815.1,5.00,0.00,23.1,22.0,00.0,31.8,25.0,17.3,-001.4,0011.02,0019.45,0009.73
2022-11-09 19:23:00,,0815.1,5.00,0.00,23.1,22.0,00.0,31.8,25.0,17.3,-001.4,0010.96,0018.95,0009.69
2022-11-09 19:24:00,,0814.5,5.00,0.00,23.1,22.0,00.0,31.8,25.0,17.3,-001.2,0010.96,0018.78,0009.69
2022-11-09 19:25:00,,0814.6,5.00,0.00,23.1,22.0,00.0,31.8,25.0,17.3,-000.9,0010.90,0018.26,0009.68
2022-11-09 19:26:00,,0815.0,5.00,0.00,23.1,22.1,00.0,31.8,25.1,17.3,-000.7,0010.96,0018.15,0009.70
2022-11-09 19:27:00,,0814.9,5.00,0.00,23.1,22.1,00.0,31.8,25.1,17.3,-000.7,0011.05,0018.81,0009.72
2022-11-09 19:28:00,,0814.8,5.00,0.00,23.2,22.1,00.0,31.9,25.1,17.3,-000.2,0011.12,0018.29,0009.75
2022-11-09 19:29:00,,0814.6,5.00,0.00,23.2,22.1,00.0,31.9,25.1,17.2,-000.4,0011.17,0017.72,0009.78
2022-11-09 19:30:00,,0814.8,5.00,0.00,23.2,22.1,00.0,31.9,25.1,17.2,-000.5,0011.24,0018.41,0009.81
2022-11-09 19:31:00,,0814.7,5.00,0.00,23.2,22.1,00.0,31.9,25.1,17.1,-000.6,0011.34,0018.72,0009.85
2022-11-09 19:32:00,,0814.6,5.00,0.00,23.2,22.1,00.0,31.9,25.2,17.1,-000.7,0011.39,0018.40,0009.89
2022-11-09 19:33:00,,0814.5,5.01,0.00,23.2,22.1,00.0,31.9,25.2,17.1,-000.9,0011.45,0017.97,0009.93
2022-11-09 19:34:00,,0814.4,5.00,0.00,23.2,22.2,00.0,31.9,25.2,17.1,-001.0,0011.50,0018.21,0009.96
2022-11-09 19:35:00,,0814.2,5.00,0.00,23.3,22.2,00.0,32.0,25.2,17.1,-000.9,0011.51,0019.10,0009.96
2022-11-09 19:36:00,,0814.3,5.00,0.00,23.3,22.2,00.0,32.0,25.2,17.1,-000.9,0011.54,0020.21,0009.95
2022-11-09 19:37:00,,0814.5,5.01,0.00,23.3,22.2,00.0,32.0,25.2,16.9,-001.2,0011.51,0020.48,0009.92
2022-11-09 19:38:00,,0814.3,4.99,0.00,23.3,22.2,00.0,32.0,25.2,16.9,-001.1,0011.42,0019.77,0009.91
2022-11-09 19:39:00,,0814.0,4.98,0.00,23.3,22.2,00.0,32.0,25.3,17.0,-001.3,0011.43,0019.90,0009.90
2022-11-09 19:40:00,,0814.1,5.00,0.00,23.3,22.3,00.0,32.0,25.3,17.0,-001.3,0011.40,0020.49,0009.87
2022-11-09 19:41:00,,0814.1,5.01,0.00,23.4,22.3,00.0,32.1,25.3,16.9,-001.2,0011.31,0020.29,0009.82
2022-11-09 19:42:00,,0814.4,5.01,0.00,23.4,22.3,00.0,32.1,25.3,16.8,-001.1,0011.22,0020.04,0009.76
2022-11-09 19:43:00,,0814.2,5.00,0.00,23.4,22.3,00.0,32.1,25.3,16.9,-001.3,0011.10,0019.92,0009.70
2022-11-09 19:44:00,,0814.1,4.98,0.00,23.4,22.3,00.0,32.1,25.4,16.9,-000.9,0010.99,0019.58,0009.64
2022-11-09 19:45:00,,0814.0,5.00,0.00,23.4,22.3,00.0,32.1,25.4,16.7,-001.0,0010.97,0020.00,0009.57
2022-11-09 19:46:00,,0814.0,5.01,0.00,23.4,22.3,00.0,32.1,25.4,16.7,-000.9,0010.92,0019.25,0009.51
2022-11-09 19:47:00,,0813.9,5.00,0.00,23.4,22.3,00.0,32.1,25.4,16.7,-001.0,0010.85,0018.87,0009.46
2022-11-09 19:48:00,,0813.9,4.99,0.00,23.4,22.3,00.0,32.1,25.4,16.8,-000.5,0010.76,0018.49,0009.42
2022-11-09 19:49:00,,0813.9,5.01,0.00,23.4,22.3,00.0,32.2,25.3,17.0,-000.5,0010.74,0019.17,0009.35
2022-11-09 19:50:00,,0813.8,5.00,0.00,23.5,22.3,00.0,32.2,25.4,17.0,-000.7,0010.63,0018.93,0009.29
2022-11-09 19:51:00,,0814.1,5.00,0.00,23.5,22.4,00.0,32.2,25.4,16.7,-000.9,0010.52,0018.20,0009.23
2022-11-09 19:52:00,,0814.0,4.99,0.00,23.5,22.4,00.0,32.2,25.5,16.8,-001.0,0010.49,0018.31,0009.18
2022-11-09 19:53:00,,0814.2,5.01,0.00,23.5,22.4,00.0,32.2,25.5,16.7,-001.4,0010.49,0018.33,0009.13
2022-11-09 19:54:00,,0814.0,5.00,0.00,23.5,22.4,00.0,32.2,25.5,16.6,-001.2,0010.49,0018.36,0009.11
2022-11-09 19:55:00,,0813.6,5.00,0.00,23.6,22.5,00.0,32.2,25.5,16.7,-001.4,0010.46,0018.28,0009.07
2022-11-09 19:56:00,,0813.6,4.99,0.00,23.6,22.5,00.0,32.2,25.5,16.7,-000.9,0010.43,0017.52,0009.05
2022-11-09 19:57:00,,0813.6,5.00,0.00,23.6,22.5,00.0,32.3,25.5,16.7,-000.7,0010.44,0017.50,0009.03
2022-11-09 19:58:00,,0813.6,4.99,0.00,23.6,22.5,00.0,32.3,25.5,16.6,-000.9,0010.46,0016.92,0009.03
2022-11-09 19:59:00,,0813.6,5.00,0.00,23.6,22.5,00.0,32.3,25.5,16.6,-001.2,0010.46,0016.70,0009.01
